This is the latest recevied weather packets stored in our database for station/object KC5CAM-13. If no packets are shown the sender has not sent any weather packets the latest 10 day(s).
| Time | Temp. | Humidity | Pressure | Rain* | Wind** | Luminosity | Snow |
|---|---|---|---|---|---|---|---|
| 1777080916 | 23.89° C | 68% | 1005 hPa | 0 mm | - | 0 W/m² | - |
| 1777080611 | 23.89° C | 67% | 1005.2 hPa | 0 mm | - | 0 W/m² | - |
| 1777080307 | 24.44° C | 65% | 1005.2 hPa | 0 mm | - | 0 W/m² | - |
| 1777080006 | 24.44° C | 64% | 1005.3 hPa | 0 mm | - | 0 W/m² | - |
| 1777079706 | 25° C | 62% | 1005 hPa | 0 mm | - | 0 W/m² | - |
| 1777079401 | 25.56° C | 61% | 1004.9 hPa | 0 mm | - | 0 W/m² | - |
| 1777079097 | 26.11° C | 59% | 1005 hPa | 0 mm | - | 1 W/m² | - |
| 1777078794 | 26.67° C | 57% | 1004.8 hPa | 0 mm | - | 3 W/m² | - |
| 1777078491 | 27.22° C | 54% | 1004.5 hPa | 0 mm | - | 5 W/m² | - |
| 1777078186 | 27.78° C | 51% | 1004.7 hPa | 0 mm | - | 9 W/m² | - |
| 1777077881 | 27.78° C | 50% | 1004.6 hPa | 0 mm | - | 12 W/m² | - |
| 1777077578 | 27.78° C | 50% | 1004.5 hPa | 0 mm | - | 14 W/m² | - |
| 1777077274 | 28.33° C | 49% | 1004.5 hPa | 0 mm | - | 16 W/m² | - |
| 1777076972 | 28.33° C | 48% | 1004.4 hPa | 0 mm | - | 18 W/m² | - |
| 1777076668 | 28.33° C | 49% | 1004.5 hPa | 0 mm | - | 21 W/m² | - |
| 1777076365 | 28.89° C | 48% | 1004.6 hPa | 0 mm | - | 23 W/m² | - |
| 1777076065 | 28.89° C | 47% | 1004.7 hPa | 0 mm | - | 26 W/m² | - |
| 1777075762 | 28.89° C | 48% | 1004.5 hPa | 0 mm | - | 29 W/m² | - |
| 1777075457 | 29.44° C | 46% | 1004.5 hPa | 0 mm | - | 29 W/m² | - |
| 1777075154 | 29.44° C | 45% | 1004.5 hPa | 0 mm | - | 32 W/m² | - |
| 1777074850 | 29.44° C | 45% | 1004.4 hPa | 0 mm | - | 34 W/m² | - |
| 1777074550 | 30° C | 43% | 1004.6 hPa | 0 mm | - | 39 W/m² | - |
| 1777074246 | 30.56° C | 41% | 1004.4 hPa | 0 mm | - | 46 W/m² | - |
| 1777073943 | 30.56° C | 40% | 1004.3 hPa | 0 mm | - | 133 W/m² | - |
| 1777073638 | 31.11° C | 41% | 1004.3 hPa | 0 mm | - | 50 W/m² | - |
* Rain latest hour (hover to see other rain measurements)
** Current wind speed in m/s (hover to see current wind gust speed)